PRIVATE WETTERSTATION BILLIGHEIM-ALLFELD                       ZURCK
Wetterdaten: Montag, 05.09.2016
Datum Zeit Temp. A. Temp. A. min Temp. A. max Feuchte A. Luftdruck Regen Wind Richtung Richtung Sonnenschein ET Solar Taupunkt Windchill Windben Empfang
05.09.2016 00:00 15,3 C 15,3 C 15,4 C 89 % 1014,6 hPa 0,0 l/m 2,3 km/h (1 Bft) W 268 0 min 0,000 mm 0 W/m 13,5 C 15,3 C 8,0 km/h (2 Bft) 98 %
05.09.2016 00:10 15,2 C 15,2 C 15,3 C 88 % 1014,6 hPa 4,2 l/m 3,7 km/h (1 Bft) W 269 0 min 0,940 mm 0 W/m 13,2 C 15,2 C 11,3 km/h (2 Bft) 98 %
05.09.2016 00:20 15,2 C 15,1 C 15,2 C 87 % 1014,6 hPa 0,0 l/m 5,6 km/h (1 Bft) W 277 0 min 0,000 mm 0 W/m 13,0 C 15,2 C 19,3 km/h (3 Bft) 97 %
05.09.2016 00:30 15,2 C 15,2 C 15,2 C 87 % 1014,6 hPa 0,0 l/m 6,3 km/h (2 Bft) W-NW 302 0 min 0,000 mm 0 W/m 13,0 C 15,2 C 11,3 km/h (2 Bft) 97 %
05.09.2016 00:40 15,1 C 15,1 C 15,2 C 86 % 1014,6 hPa 0,0 l/m 5,7 km/h (1 Bft) W 279 0 min 0,000 mm 0 W/m 12,8 C 15,1 C 16,1 km/h (3 Bft) 98 %
05.09.2016 00:50 15,1 C 15,1 C 15,1 C 86 % 1014,8 hPa 0,0 l/m 3,3 km/h (1 Bft) W 277 0 min 0,000 mm 0 W/m 12,8 C 15,1 C 14,5 km/h (3 Bft) 97 %
05.09.2016 01:00 15,1 C 15,1 C 15,1 C 86 % 1014,9 hPa 0,0 l/m 2,1 km/h (1 Bft) W 274 0 min 0,025 mm 0 W/m 12,8 C 15,1 C 8,0 km/h (2 Bft) 98 %
05.09.2016 01:10 15,1 C 15,1 C 15,1 C 86 % 1015,0 hPa 0,0 l/m 2,6 km/h (1 Bft) W-SW 257 0 min 0,000 mm 0 W/m 12,8 C 15,1 C 8,0 km/h (2 Bft) 97 %
05.09.2016 01:20 15,1 C 15,1 C 15,1 C 86 % 1015,1 hPa 0,0 l/m 3,0 km/h (1 Bft) W-SW 253 0 min 0,000 mm 0 W/m 12,8 C 15,1 C 9,7 km/h (2 Bft) 98 %
05.09.2016 01:30 15,1 C 15,0 C 15,1 C 88 % 1015,0 hPa 0,0 l/m 3,5 km/h (1 Bft) W-SW 250 0 min 0,000 mm 0 W/m 13,1 C 15,1 C 9,7 km/h (2 Bft) 97 %
05.09.2016 01:40 15,1 C 15,1 C 15,1 C 86 % 1015,0 hPa 0,0 l/m 1,2 km/h (1 Bft) W-SW 243 0 min 0,000 mm 0 W/m 12,8 C 15,1 C 6,4 km/h (2 Bft) 97 %
05.09.2016 01:50 15,1 C 15,0 C 15,1 C 85 % 1015,1 hPa 0,0 l/m 3,0 km/h (1 Bft) W-SW 241 0 min 0,000 mm 0 W/m 12,6 C 15,1 C 12,9 km/h (3 Bft) 98 %
05.09.2016 02:00 15,1 C 15,1 C 15,1 C 85 % 1015,1 hPa 0,0 l/m 3,1 km/h (1 Bft) NW 308 0 min 0,026 mm 0 W/m 12,6 C 15,1 C 17,7 km/h (3 Bft) 97 %
05.09.2016 02:10 15,1 C 15,1 C 15,1 C 85 % 1015,2 hPa 0,0 l/m 2,4 km/h (1 Bft) W 260 0 min 0,000 mm 0 W/m 12,6 C 15,1 C 9,7 km/h (2 Bft) 98 %
05.09.2016 02:20 15,1 C 15,1 C 15,1 C 85 % 1015,2 hPa 0,0 l/m 2,9 km/h (1 Bft) W 259 0 min 0,000 mm 0 W/m 12,6 C 15,1 C 8,0 km/h (2 Bft) 97 %
05.09.2016 02:30 15,1 C 15,1 C 15,1 C 85 % 1015,2 hPa 0,0 l/m 2,7 km/h (1 Bft) W-NW 284 0 min 0,000 mm 0 W/m 12,6 C 15,1 C 9,7 km/h (2 Bft) 97 %
05.09.2016 02:40 15,1 C 15,1 C 15,1 C 85 % 1015,1 hPa 0,0 l/m 2,2 km/h (1 Bft) W-SW 240 0 min 0,000 mm 0 W/m 12,6 C 15,1 C 9,7 km/h (2 Bft) 97 %
05.09.2016 02:50 15,0 C 14,9 C 15,1 C 85 % 1015,2 hPa 0,0 l/m 3,3 km/h (1 Bft) W 260 0 min 0,000 mm 0 W/m 12,5 C 15,0 C 11,3 km/h (2 Bft) 97 %
05.09.2016 03:00 14,9 C 14,9 C 15,0 C 86 % 1015,4 hPa 0,0 l/m 3,1 km/h (1 Bft) W-SW 248 0 min 0,025 mm 0 W/m 12,6 C 14,9 C 9,7 km/h (2 Bft) 98 %
05.09.2016 03:10 14,8 C 14,8 C 14,9 C 86 % 1015,5 hPa 0,0 l/m 3,8 km/h (1 Bft) W-NW 287 0 min 0,000 mm 0 W/m 12,5 C 14,8 C 11,3 km/h (2 Bft) 97 %
05.09.2016 03:20 14,8 C 14,8 C 14,8 C 87 % 1015,5 hPa 0,0 l/m 3,9 km/h (1 Bft) W 260 0 min 0,000 mm 0 W/m 12,7 C 14,8 C 11,3 km/h (2 Bft) 98 %
05.09.2016 03:30 14,7 C 14,7 C 14,8 C 87 % 1015,5 hPa 0,0 l/m 1,0 km/h (0 Bft) W-SW 256 0 min 0,000 mm 0 W/m 12,6 C 14,7 C 9,7 km/h (2 Bft) 98 %
05.09.2016 03:40 14,6 C 14,6 C 14,7 C 87 % 1015,4 hPa 0,0 l/m 3,5 km/h (1 Bft) W-SW 245 0 min 0,000 mm 0 W/m 12,5 C 14,6 C 9,7 km/h (2 Bft) 97 %
05.09.2016 03:50 14,4 C 14,4 C 14,6 C 87 % 1015,3 hPa 0,0 l/m 4,4 km/h (1 Bft) W-SW 242 0 min 0,000 mm 0 W/m 12,3 C 14,4 C 16,1 km/h (3 Bft) 98 %
05.09.2016 04:00 14,3 C 14,3 C 14,4 C 87 % 1015,5 hPa 0,0 l/m 5,1 km/h (1 Bft) W-SW 255 0 min 0,025 mm 0 W/m 12,2 C 14,3 C 17,7 km/h (3 Bft) 97 %
05.09.2016 04:10 14,3 C 14,3 C 14,3 C 88 % 1015,6 hPa 0,0 l/m 1,4 km/h (1 Bft) SW 223 0 min 0,000 mm 0 W/m 12,3 C 14,3 C 8,0 km/h (2 Bft) 98 %
05.09.2016 04:20 14,2 C 14,2 C 14,3 C 88 % 1015,6 hPa 0,0 l/m 3,8 km/h (1 Bft) SW 219 0 min 0,000 mm 0 W/m 12,2 C 14,2 C 11,3 km/h (2 Bft) 97 %
05.09.2016 04:30 14,1 C 14,1 C 14,2 C 88 % 1015,6 hPa 0,0 l/m 3,0 km/h (1 Bft) SW 221 0 min 0,000 mm 0 W/m 12,1 C 14,1 C 11,3 km/h (2 Bft) 98 %
05.09.2016 04:40 14,0 C 14,0 C 14,1 C 88 % 1015,6 hPa 0,0 l/m 2,9 km/h (1 Bft) SW 233 0 min 0,000 mm 0 W/m 12,0 C 14,0 C 16,1 km/h (3 Bft) 97 %
05.09.2016 04:50 13,9 C 13,9 C 14,0 C 88 % 1015,8 hPa 0,0 l/m 0,7 km/h (0 Bft) W-SW 255 0 min 0,000 mm 0 W/m 11,9 C 13,9 C 6,4 km/h (2 Bft) 97 %
05.09.2016 05:00 13,9 C 13,9 C 14,0 C 88 % 1015,8 hPa 0,0 l/m 3,2 km/h (1 Bft) W-SW 254 0 min 0,000 mm 0 W/m 11,9 C 13,9 C 6,4 km/h (2 Bft) 98 %
05.09.2016 05:10 13,8 C 13,8 C 13,9 C 88 % 1015,9 hPa 0,0 l/m 1,2 km/h (1 Bft) W 259 0 min 0,000 mm 0 W/m 11,8 C 13,8 C 8,0 km/h (2 Bft) 97 %
05.09.2016 05:20 13,7 C 13,7 C 13,8 C 88 % 1016,0 hPa 0,0 l/m 1,7 km/h (1 Bft) W-SW 240 0 min 0,000 mm 0 W/m 11,7 C 13,7 C 8,0 km/h (2 Bft) 98 %
05.09.2016 05:30 13,6 C 13,6 C 13,7 C 89 % 1016,0 hPa 0,0 l/m 0,3 km/h (0 Bft) W-SW 239 0 min 0,000 mm 0 W/m 11,8 C 13,6 C 4,8 km/h (1 Bft) 97 %
05.09.2016 05:40 13,4 C 13,4 C 13,6 C 89 % 1016,1 hPa 0,0 l/m 2,0 km/h (1 Bft) W 262 0 min 0,000 mm 0 W/m 11,6 C 13,4 C 9,7 km/h (2 Bft) 98 %
05.09.2016 05:50 13,4 C 13,4 C 13,4 C 89 % 1016,2 hPa 0,0 l/m 2,1 km/h (1 Bft) W-NW 287 0 min 0,000 mm 0 W/m 11,6 C 13,4 C 8,0 km/h (2 Bft) 98 %
05.09.2016 06:00 13,4 C 13,4 C 13,4 C 89 % 1016,3 hPa 0,0 l/m 3,8 km/h (1 Bft) W 259 0 min 0,000 mm 0 W/m 11,6 C 13,4 C 14,5 km/h (3 Bft) 97 %
05.09.2016 06:10 13,4 C 13,4 C 13,4 C 89 % 1016,3 hPa 0,0 l/m 3,0 km/h (1 Bft) W-SW 250 0 min 0,000 mm 0 W/m 11,6 C 13,4 C 11,3 km/h (2 Bft) 97 %
05.09.2016 06:20 13,4 C 13,4 C 13,4 C 89 % 1016,5 hPa 0,0 l/m 2,4 km/h (1 Bft) W-SW 255 0 min 0,000 mm 0 W/m 11,6 C 13,4 C 8,0 km/h (2 Bft) 97 %
05.09.2016 06:30 13,4 C 13,4 C 13,4 C 89 % 1016,5 hPa 0,0 l/m 2,8 km/h (1 Bft) W-SW 248 0 min 0,000 mm 0 W/m 11,6 C 13,4 C 8,0 km/h (2 Bft) 97 %
05.09.2016 06:40 13,4 C 13,4 C 13,4 C 89 % 1016,7 hPa 0,0 l/m 0,8 km/h (0 Bft) W-NW 286 0 min 0,000 mm 0 W/m 11,6 C 13,4 C 9,7 km/h (2 Bft) 97 %
05.09.2016 06:50 13,4 C 13,4 C 13,4 C 89 % 1016,7 hPa 0,0 l/m 0,3 km/h (0 Bft) SW 235 0 min 0,000 mm 0 W/m 11,6 C 13,4 C 6,4 km/h (2 Bft) 97 %
05.09.2016 07:00 13,4 C 13,4 C 13,4 C 89 % 1016,8 hPa 0,0 l/m 0,0 km/h (0 Bft) W-SW 238 0 min 0,000 mm 0 W/m 11,6 C 13,4 C 1,6 km/h (1 Bft) 88 %
05.09.2016 07:10 13,5 C 13,4 C 13,5 C 89 % 1016,9 hPa 0,0 l/m 0,0 km/h (0 Bft) SW 228 0 min 0,000 mm 0 W/m 11,7 C 13,5 C 1,6 km/h (1 Bft) 97 %
05.09.2016 07:20 13,6 C 13,5 C 13,6 C 89 % 1017,1 hPa 0,0 l/m 0,6 km/h (0 Bft) SW 221 0 min 0,000 mm 0 W/m 11,8 C 13,6 C 6,4 km/h (2 Bft) 98 %
05.09.2016 07:30 13,7 C 13,6 C 13,7 C 89 % 1017,1 hPa 0,0 l/m 0,8 km/h (0 Bft) SW 221 0 min 0,000 mm 0 W/m 11,9 C 13,7 C 6,4 km/h (2 Bft) 97 %
05.09.2016 07:40 13,8 C 13,7 C 13,8 C 89 % 1017,2 hPa 0,0 l/m 3,1 km/h (1 Bft) SW 221 0 min 0,000 mm 0 W/m 12,0 C 13,8 C 8,0 km/h (2 Bft) 98 %
05.09.2016 07:50 13,9 C 13,8 C 13,9 C 89 % 1017,2 hPa 0,0 l/m 1,1 km/h (1 Bft) SW 232 0 min 0,000 mm 21 W/m 12,1 C 13,9 C 6,4 km/h (2 Bft) 97 %
05.09.2016 08:00 14,1 C 13,9 C 14,1 C 89 % 1017,2 hPa 0,0 l/m 1,5 km/h (1 Bft) W 262 0 min 0,000 mm 16 W/m 12,3 C 14,1 C 8,0 km/h (2 Bft) 97 %
05.09.2016 08:10 14,3 C 14,1 C 14,3 C 89 % 1017,4 hPa 0,0 l/m 3,3 km/h (1 Bft) W-NW 293 0 min 0,000 mm 7 W/m 12,5 C 14,3 C 12,9 km/h (3 Bft) 98 %
05.09.2016 08:20 14,4 C 14,3 C 14,4 C 88 % 1017,5 hPa 0,0 l/m 2,0 km/h (1 Bft) W 266 0 min 0,000 mm 39 W/m 12,4 C 14,4 C 11,3 km/h (2 Bft) 97 %
05.09.2016 08:30 14,6 C 14,4 C 14,6 C 89 % 1017,6 hPa 0,0 l/m 5,6 km/h (1 Bft) W 261 0 min 0,000 mm 47 W/m 12,8 C 14,6 C 11,3 km/h (2 Bft) 98 %
05.09.2016 08:40 14,8 C 14,6 C 14,8 C 88 % 1017,6 hPa 0,0 l/m 3,0 km/h (1 Bft) W 269 0 min 0,000 mm 54 W/m 12,8 C 14,8 C 9,7 km/h (2 Bft) 97 %
05.09.2016 08:50 14,9 C 14,8 C 14,9 C 88 % 1017,6 hPa 0,0 l/m 4,3 km/h (1 Bft) W 261 0 min 0,000 mm 26 W/m 12,9 C 14,9 C 14,5 km/h (3 Bft) 97 %
05.09.2016 09:00 15,1 C 14,9 C 15,1 C 87 % 1017,7 hPa 0,0 l/m 2,2 km/h (1 Bft) W 261 0 min 0,026 mm 93 W/m 13,0 C 15,1 C 9,7 km/h (2 Bft) 97 %
05.09.2016 09:10 15,6 C 15,1 C 15,6 C 87 % 1017,6 hPa 0,0 l/m 4,1 km/h (1 Bft) W-SW 254 10 min 0,000 mm 283 W/m 13,4 C 15,6 C 11,3 km/h (2 Bft) 98 %
05.09.2016 09:20 16,4 C 15,6 C 16,4 C 85 % 1017,6 hPa 0,0 l/m 1,0 km/h (0 Bft) W-SW 241 10 min 0,000 mm 299 W/m 13,9 C 16,4 C 11,3 km/h (2 Bft) 97 %
05.09.2016 09:30 16,7 C 16,4 C 16,8 C 81 % 1017,9 hPa 0,0 l/m 3,5 km/h (1 Bft) W-SW 248 10 min 0,000 mm 195 W/m 13,4 C 16,7 C 11,3 km/h (2 Bft) 97 %
05.09.2016 09:40 16,6 C 16,6 C 16,7 C 82 % 1017,8 hPa 0,0 l/m 4,6 km/h (1 Bft) NW 304 0 min 0,000 mm 70 W/m 13,5 C 16,6 C 14,5 km/h (3 Bft) 98 %
05.09.2016 09:50 16,3 C 16,3 C 16,6 C 82 % 1018,0 hPa 0,0 l/m 6,9 km/h (2 Bft) W 261 0 min 0,000 mm 88 W/m 13,2 C 16,0 C 20,9 km/h (4 Bft) 98 %
05.09.2016 10:00 16,1 C 16,1 C 16,3 C 83 % 1018,0 hPa 0,0 l/m 9,9 km/h (2 Bft) W 269 0 min 0,101 mm 118 W/m 13,2 C 14,4 C 19,3 km/h (3 Bft) 98 %
05.09.2016 10:10 15,9 C 15,9 C 16,1 C 83 % 1018,2 hPa 0,0 l/m 10,0 km/h (2 Bft) W 265 0 min 0,000 mm 46 W/m 13,0 C 14,1 C 19,3 km/h (3 Bft) 98 %
05.09.2016 10:20 15,9 C 15,9 C 15,9 C 84 % 1018,2 hPa 0,0 l/m 7,8 km/h (2 Bft) W-SW 244 0 min 0,000 mm 141 W/m 13,2 C 15,1 C 20,9 km/h (4 Bft) 98 %
05.09.2016 10:30 16,2 C 15,9 C 16,2 C 85 % 1018,4 hPa 0,0 l/m 7,4 km/h (2 Bft) W 268 10 min 0,000 mm 279 W/m 13,7 C 15,7 C 16,1 km/h (3 Bft) 97 %
05.09.2016 10:40 16,6 C 16,2 C 16,6 C 83 % 1018,4 hPa 0,0 l/m 6,8 km/h (2 Bft) W-NW 293 10 min 0,000 mm 188 W/m 13,7 C 16,4 C 17,7 km/h (3 Bft) 97 %
05.09.2016 10:50 16,6 C 16,6 C 16,7 C 81 % 1018,4 hPa 0,0 l/m 7,5 km/h (2 Bft) W-SW 257 0 min 0,000 mm 151 W/m 13,3 C 16,0 C 19,3 km/h (3 Bft) 98 %
05.09.2016 11:00 16,7 C 16,6 C 16,7 C 82 % 1018,5 hPa 0,0 l/m 6,5 km/h (2 Bft) W-SW 240 10 min 0,102 mm 169 W/m 13,6 C 16,7 C 20,9 km/h (4 Bft) 97 %
05.09.2016 11:10 16,8 C 16,7 C 16,8 C 82 % 1018,5 hPa 0,0 l/m 7,0 km/h (2 Bft) W-SW 252 10 min 0,000 mm 167 W/m 13,7 C 16,5 C 14,5 km/h (3 Bft) 97 %
05.09.2016 11:20 16,9 C 16,8 C 16,9 C 81 % 1018,4 hPa 0,0 l/m 6,5 km/h (2 Bft) W 281 0 min 0,000 mm 105 W/m 13,6 C 16,9 C 14,5 km/h (3 Bft) 98 %
05.09.2016 11:30 17,0 C 16,9 C 17,0 C 80 % 1018,6 hPa 0,0 l/m 7,4 km/h (2 Bft) W-NW 303 0 min 0,000 mm 132 W/m 13,5 C 16,5 C 17,7 km/h (3 Bft) 97 %
05.09.2016 11:40 17,2 C 17,0 C 17,2 C 81 % 1018,7 hPa 0,0 l/m 6,5 km/h (2 Bft) W-NW 294 10 min 0,000 mm 255 W/m 13,9 C 17,2 C 16,1 km/h (3 Bft) 98 %
05.09.2016 11:50 17,6 C 17,2 C 17,6 C 81 % 1018,7 hPa 0,0 l/m 6,4 km/h (2 Bft) W 281 10 min 0,000 mm 322 W/m 14,3 C 17,6 C 17,7 km/h (3 Bft) 97 %
05.09.2016 12:00 17,9 C 17,6 C 17,9 C 78 % 1018,7 hPa 0,0 l/m 9,8 km/h (2 Bft) W 267 10 min 0,127 mm 492 W/m 14,0 C 16,4 C 20,9 km/h (4 Bft) 97 %
05.09.2016 12:10 18,6 C 17,9 C 18,6 C 78 % 1018,6 hPa 0,0 l/m 8,5 km/h (2 Bft) W 267 10 min 0,000 mm 220 W/m 14,7 C 17,7 C 20,9 km/h (4 Bft) 97 %
05.09.2016 12:20 18,8 C 18,6 C 18,8 C 74 % 1018,6 hPa 0,0 l/m 11,3 km/h (2 Bft) W-SW 257 10 min 0,000 mm 236 W/m 14,1 C 16,9 C 24,1 km/h (4 Bft) 97 %
05.09.2016 12:30 18,6 C 18,6 C 18,8 C 74 % 1018,5 hPa 0,0 l/m 6,4 km/h (2 Bft) NW 317 0 min 0,000 mm 5 W/m 13,9 C 18,6 C 16,1 km/h (3 Bft) 98 %
05.09.2016 12:40 18,1 C 18,1 C 18,6 C 76 % 1018,7 hPa 0,0 l/m 5,6 km/h (1 Bft) W 262 0 min 0,000 mm 33 W/m 13,8 C 18,1 C 19,3 km/h (3 Bft) 97 %
05.09.2016 12:50 17,8 C 17,8 C 18,1 C 78 % 1018,7 hPa 0,0 l/m 5,9 km/h (2 Bft) NW 306 10 min 0,000 mm 287 W/m 13,9 C 17,8 C 17,7 km/h (3 Bft) 98 %
05.09.2016 13:00 18,5 C 17,8 C 18,5 C 77 % 1018,7 hPa 0,0 l/m 2,3 km/h (1 Bft) W-NW 303 10 min 0,178 mm 346 W/m 14,4 C 18,5 C 11,3 km/h (2 Bft) 97 %
05.09.2016 13:10 19,4 C 18,5 C 19,4 C 75 % 1018,7 hPa 0,0 l/m 4,5 km/h (1 Bft) NW 321 10 min 0,000 mm 849 W/m 14,8 C 19,4 C 16,1 km/h (3 Bft) 98 %
05.09.2016 13:20 19,5 C 19,4 C 19,7 C 70 % 1018,8 hPa 0,0 l/m 6,0 km/h (2 Bft) NW 310 0 min 0,000 mm 19 W/m 13,9 C 19,5 C 16,1 km/h (3 Bft) 97 %
05.09.2016 13:30 19,1 C 19,1 C 19,5 C 72 % 1018,9 hPa 0,0 l/m 5,0 km/h (1 Bft) W-NW 298 0 min 0,000 mm 0 W/m 13,9 C 19,1 C 17,7 km/h (3 Bft) 97 %
05.09.2016 13:40 18,5 C 18,5 C 19,1 C 74 % 1019,2 hPa 0,0 l/m 4,6 km/h (1 Bft) W-SW 258 0 min 0,000 mm 7 W/m 13,8 C 18,5 C 19,3 km/h (3 Bft) 97 %
05.09.2016 13:50 18,1 C 18,1 C 18,5 C 77 % 1019,3 hPa 0,0 l/m 8,2 km/h (2 Bft) NW 305 0 min 0,000 mm 111 W/m 14,0 C 17,3 C 19,3 km/h (3 Bft) 97 %
05.09.2016 14:00 17,9 C 17,9 C 18,1 C 76 % 1019,3 hPa 0,0 l/m 7,4 km/h (2 Bft) W-NW 290 0 min 0,101 mm 47 W/m 13,6 C 17,4 C 17,7 km/h (3 Bft) 98 %
05.09.2016 14:10 17,8 C 17,8 C 17,9 C 77 % 1019,3 hPa 0,0 l/m 4,1 km/h (1 Bft) W 267 0 min 0,000 mm 79 W/m 13,7 C 17,8 C 16,1 km/h (3 Bft) 98 %
05.09.2016 14:20 17,9 C 17,8 C 17,9 C 77 % 1019,4 hPa 0,0 l/m 5,7 km/h (1 Bft) W 260 10 min 0,000 mm 227 W/m 13,8 C 17,9 C 16,1 km/h (3 Bft) 98 %
05.09.2016 14:30 18,3 C 17,9 C 18,3 C 76 % 1019,5 hPa 0,0 l/m 3,9 km/h (1 Bft) NW 311 10 min 0,000 mm 220 W/m 14,0 C 18,3 C 14,5 km/h (3 Bft) 97 %
05.09.2016 14:40 18,6 C 18,3 C 18,6 C 76 % 1019,5 hPa 0,0 l/m 4,2 km/h (1 Bft) W-NW 290 10 min 0,000 mm 220 W/m 14,3 C 18,6 C 16,1 km/h (3 Bft) 97 %
05.09.2016 14:50 18,9 C 18,6 C 18,9 C 75 % 1019,5 hPa 0,0 l/m 6,5 km/h (2 Bft) W-SW 252 10 min 0,000 mm 285 W/m 14,4 C 18,9 C 17,7 km/h (3 Bft) 97 %
05.09.2016 15:00 19,6 C 18,9 C 19,6 C 75 % 1019,5 hPa 0,0 l/m 4,5 km/h (1 Bft) SW 229 10 min 0,153 mm 336 W/m 15,0 C 19,6 C 14,5 km/h (3 Bft) 97 %
05.09.2016 15:10 20,2 C 19,6 C 20,2 C 71 % 1019,4 hPa 0,0 l/m 6,6 km/h (2 Bft) W-NW 298 10 min 0,000 mm 290 W/m 14,8 C 20,1 C 17,7 km/h (3 Bft) 98 %
05.09.2016 15:20 20,4 C 20,2 C 20,4 C 68 % 1019,6 hPa 0,0 l/m 6,0 km/h (2 Bft) W 265 10 min 0,000 mm 255 W/m 14,3 C 20,4 C 20,9 km/h (4 Bft) 97 %
05.09.2016 15:30 20,4 C 20,4 C 20,4 C 67 % 1019,6 hPa 0,0 l/m 6,0 km/h (2 Bft) W-NW 291 10 min 0,000 mm 290 W/m 14,1 C 20,4 C 16,1 km/h (3 Bft) 97 %
05.09.2016 15:40 20,6 C 20,4 C 20,6 C 69 % 1019,6 hPa 0,0 l/m 5,0 km/h (1 Bft) W-NW 300 10 min 0,000 mm 339 W/m 14,7 C 20,6 C 11,3 km/h (2 Bft) 98 %
05.09.2016 15:50 20,9 C 20,6 C 20,9 C 67 % 1019,5 hPa 0,0 l/m 4,9 km/h (1 Bft) W-NW 292 10 min 0,000 mm 237 W/m 14,5 C 20,9 C 16,1 km/h (3 Bft) 97 %
05.09.2016 16:00 20,9 C 20,9 C 21,0 C 64 % 1019,5 hPa 0,0 l/m 7,2 km/h (2 Bft) W-NW 300 10 min 0,203 mm 246 W/m 13,8 C 20,6 C 22,5 km/h (4 Bft) 98 %
05.09.2016 16:10 20,9 C 20,9 C 20,9 C 67 % 1019,6 hPa 0,0 l/m 7,7 km/h (2 Bft) W-SW 257 10 min 0,000 mm 185 W/m 14,5 C 20,4 C 16,1 km/h (3 Bft) 97 %
05.09.2016 16:20 20,8 C 20,8 C 20,9 C 67 % 1019,7 hPa 0,0 l/m 4,5 km/h (1 Bft) W 280 10 min 0,000 mm 213 W/m 14,4 C 20,8 C 11,3 km/h (2 Bft) 97 %
05.09.2016 16:30 20,7 C 20,7 C 20,8 C 67 % 1019,7 hPa 0,0 l/m 3,5 km/h (1 Bft) W-SW 237 0 min 0,000 mm 125 W/m 14,3 C 20,7 C 11,3 km/h (2 Bft) 97 %
05.09.2016 16:40 20,4 C 20,4 C 20,7 C 66 % 1019,8 hPa 0,0 l/m 5,6 km/h (1 Bft) W 265 0 min 0,000 mm 114 W/m 13,8 C 20,4 C 16,1 km/h (3 Bft) 98 %
05.09.2016 16:50 20,3 C 20,3 C 20,4 C 66 % 1019,7 hPa 0,0 l/m 6,6 km/h (2 Bft) W-NW 294 10 min 0,000 mm 188 W/m 13,7 C 20,2 C 14,5 km/h (3 Bft) 97 %
05.09.2016 17:00 20,4 C 20,3 C 20,4 C 65 % 1019,9 hPa 0,0 l/m 7,4 km/h (2 Bft) W-NW 302 10 min 0,127 mm 213 W/m 13,6 C 20,0 C 16,1 km/h (3 Bft) 97 %
05.09.2016 17:10 20,4 C 20,4 C 20,5 C 66 % 1019,9 hPa 0,0 l/m 8,3 km/h (2 Bft) NW 316 0 min 0,000 mm 102 W/m 13,8 C 19,7 C 16,1 km/h (3 Bft) 97 %
05.09.2016 17:20 20,3 C 20,3 C 20,4 C 65 % 1019,9 hPa 0,0 l/m 5,4 km/h (1 Bft) W-SW 252 0 min 0,000 mm 98 W/m 13,5 C 20,3 C 11,3 km/h (2 Bft) 97 %
05.09.2016 17:30 20,0 C 20,0 C 20,3 C 68 % 1019,9 hPa 0,0 l/m 5,9 km/h (2 Bft) NW 311 0 min 0,000 mm 32 W/m 13,9 C 20,0 C 19,3 km/h (3 Bft) 98 %
05.09.2016 17:40 19,7 C 19,7 C 20,0 C 67 % 1019,9 hPa 0,0 l/m 11,8 km/h (2 Bft) W-NW 298 0 min 0,000 mm 114 W/m 13,4 C 17,7 C 22,5 km/h (4 Bft) 97 %
05.09.2016 17:50 19,8 C 19,7 C 19,8 C 67 % 1020,0 hPa 0,0 l/m 10,1 km/h (2 Bft) NW 306 0 min 0,000 mm 118 W/m 13,5 C 18,4 C 17,7 km/h (3 Bft) 98 %
05.09.2016 18:00 20,0 C 19,8 C 20,0 C 67 % 1020,1 hPa 0,0 l/m 7,4 km/h (2 Bft) NW 307 0 min 0,102 mm 35 W/m 13,7 C 19,6 C 16,1 km/h (3 Bft) 97 %
05.09.2016 18:10 20,2 C 20,0 C 20,2 C 66 % 1020,1 hPa 0,0 l/m 6,4 km/h (2 Bft) NW 316 0 min 0,000 mm 88 W/m 13,6 C 20,2 C 16,1 km/h (3 Bft) 97 %
05.09.2016 18:20 20,0 C 20,0 C 20,2 C 67 % 1020,2 hPa 0,0 l/m 5,0 km/h (1 Bft) W-NW 300 0 min 0,000 mm 86 W/m 13,7 C 20,0 C 16,1 km/h (3 Bft) 97 %
05.09.2016 18:30 19,8 C 19,8 C 20,0 C 68 % 1020,3 hPa 0,0 l/m 6,2 km/h (2 Bft) W-NW 302 0 min 0,000 mm 33 W/m 13,7 C 19,8 C 16,1 km/h (3 Bft) 98 %
05.09.2016 18:40 19,7 C 19,7 C 19,8 C 70 % 1020,3 hPa 0,0 l/m 4,9 km/h (1 Bft) W-NW 298 0 min 0,000 mm 39 W/m 14,1 C 19,7 C 9,7 km/h (2 Bft) 98 %
05.09.2016 18:50 19,5 C 19,5 C 19,7 C 68 % 1020,3 hPa 0,0 l/m 6,3 km/h (2 Bft) NW 306 0 min 0,000 mm 26 W/m 13,4 C 19,5 C 14,5 km/h (3 Bft) 97 %
05.09.2016 19:00 19,3 C 19,3 C 19,5 C 68 % 1020,6 hPa 0,0 l/m 6,2 km/h (2 Bft) W-NW 300 0 min 0,050 mm 14 W/m 13,2 C 19,3 C 16,1 km/h (3 Bft) 97 %
05.09.2016 19:10 19,1 C 19,1 C 19,3 C 69 % 1020,6 hPa 0,0 l/m 5,1 km/h (1 Bft) W-NW 293 0 min 0,000 mm 0 W/m 13,3 C 19,1 C 16,1 km/h (3 Bft) 98 %
05.09.2016 19:20 18,9 C 18,9 C 19,1 C 70 % 1020,7 hPa 0,0 l/m 3,8 km/h (1 Bft) NW 319 0 min 0,000 mm 0 W/m 13,3 C 18,9 C 9,7 km/h (2 Bft) 97 %
05.09.2016 19:30 18,7 C 18,7 C 18,9 C 72 % 1020,8 hPa 0,0 l/m 0,6 km/h (0 Bft) NW 318 0 min 0,000 mm 0 W/m 13,5 C 18,7 C 6,4 km/h (2 Bft) 98 %
05.09.2016 19:40 18,5 C 18,5 C 18,7 C 71 % 1020,9 hPa 0,0 l/m 0,0 km/h (0 Bft) NW 318 0 min 0,000 mm 7 W/m 13,1 C 18,5 C 1,6 km/h (1 Bft) 97 %
05.09.2016 19:50 18,3 C 18,3 C 18,5 C 76 % 1020,9 hPa 0,0 l/m 0,0 km/h (0 Bft) NW 318 0 min 0,000 mm 5 W/m 14,0 C 18,3 C 0,0 km/h (0 Bft) 98 %
05.09.2016 20:00 18,0 C 18,0 C 18,3 C 77 % 1021,1 hPa 0,0 l/m 0,0 km/h (0 Bft) NW 318 0 min 0,026 mm 0 W/m 13,9 C 18,0 C 0,0 km/h (0 Bft) 97 %
05.09.2016 20:10 17,6 C 17,6 C 18,0 C 77 % 1021,2 hPa 0,0 l/m 0,0 km/h (0 Bft) NW 318 0 min 0,000 mm 0 W/m 13,5 C 17,6 C 0,0 km/h (0 Bft) 98 %
05.09.2016 20:20 17,3 C 17,3 C 17,6 C 77 % 1021,4 hPa 0,0 l/m 0,0 km/h (0 Bft) NW 318 0 min 0,000 mm 0 W/m 13,2 C 17,3 C 0,0 km/h (0 Bft) 97 %
05.09.2016 20:30 17,1 C 17,1 C 17,3 C 78 % 1021,4 hPa 0,0 l/m 0,0 km/h (0 Bft) NW 318 0 min 0,000 mm 0 W/m 13,2 C 17,1 C 0,0 km/h (0 Bft) 97 %
05.09.2016 20:40 17,0 C 17,0 C 17,1 C 80 % 1021,5 hPa 0,0 l/m 0,0 km/h (0 Bft) NW 318 0 min 0,000 mm 0 W/m 13,5 C 17,0 C 0,0 km/h (0 Bft) 98 %
05.09.2016 20:50 16,8 C 16,8 C 17,0 C 81 % 1021,6 hPa 0,0 l/m 0,0 km/h (0 Bft) NW 318 0 min 0,000 mm 0 W/m 13,5 C 16,8 C 0,0 km/h (0 Bft) 97 %
05.09.2016 21:00 16,5 C 16,5 C 16,8 C 81 % 1021,6 hPa 0,0 l/m 0,0 km/h (0 Bft) NW 318 0 min 0,000 mm 0 W/m 13,2 C 16,5 C 1,6 km/h (1 Bft) 98 %
05.09.2016 21:10 16,3 C 16,3 C 16,5 C 81 % 1021,8 hPa 0,0 l/m 0,0 km/h (0 Bft) NW 318 0 min 0,000 mm 0 W/m 13,0 C 16,3 C 0,0 km/h (0 Bft) 97 %
05.09.2016 21:20 16,3 C 16,3 C 16,3 C 82 % 1021,9 hPa 0,0 l/m 0,0 km/h (0 Bft) NW 318 0 min 0,000 mm 0 W/m 13,2 C 16,3 C 1,6 km/h (1 Bft) 97 %
05.09.2016 21:30 16,2 C 16,2 C 16,3 C 82 % 1021,9 hPa 0,0 l/m 0,0 km/h (0 Bft) NW 318 0 min 0,000 mm 0 W/m 13,1 C 16,2 C 0,0 km/h (0 Bft) 99 %
05.09.2016 21:40 15,9 C 15,9 C 16,2 C 82 % 1022,1 hPa 0,0 l/m 0,0 km/h (0 Bft) NW 318 0 min 0,000 mm 0 W/m 12,8 C 15,9 C 0,0 km/h (0 Bft) 99 %
05.09.2016 21:50 15,7 C 15,7 C 15,9 C 83 % 1022,1 hPa 0,0 l/m 0,0 km/h (0 Bft) NW 318 0 min 0,000 mm 0 W/m 12,8 C 15,7 C 0,0 km/h (0 Bft) 98 %
05.09.2016 22:00 15,5 C 15,5 C 15,7 C 83 % 1022,0 hPa 0,0 l/m 0,0 km/h (0 Bft) NW 318 0 min 0,025 mm 0 W/m 12,6 C 15,5 C 0,0 km/h (0 Bft) 99 %
05.09.2016 22:10 15,2 C 15,2 C 15,5 C 85 % 1022,1 hPa 0,0 l/m 0,0 km/h (0 Bft) NW 318 0 min 0,000 mm 0 W/m 12,7 C 15,2 C 0,0 km/h (0 Bft) 100 %
05.09.2016 22:20 15,1 C 15,1 C 15,2 C 86 % 1022,1 hPa 0,0 l/m 0,0 km/h (0 Bft) N-NW 337 0 min 0,000 mm 0 W/m 12,8 C 15,1 C 1,6 km/h (1 Bft) 100 %
05.09.2016 22:30 15,1 C 15,1 C 15,1 C 86 % 1022,2 hPa 0,0 l/m 0,0 km/h (0 Bft) N-NW 337 0 min 0,000 mm 0 W/m 12,8 C 15,1 C 0,0 km/h (0 Bft) 100 %
05.09.2016 22:40 15,1 C 15,1 C 15,1 C 87 % 1022,5 hPa 0,0 l/m 0,0 km/h (0 Bft) N-NW 337 0 min 0,000 mm 0 W/m 13,0 C 15,1 C 0,0 km/h (0 Bft) 100 %
05.09.2016 22:50 15,1 C 15,1 C 15,1 C 87 % 1022,6 hPa 0,0 l/m 0,0 km/h (0 Bft) N-NW 337 0 min 0,000 mm 0 W/m 13,0 C 15,1 C 0,0 km/h (0 Bft) 100 %
05.09.2016 23:00 15,1 C 15,1 C 15,1 C 87 % 1022,7 hPa 0,0 l/m 0,0 km/h (0 Bft) N-NW 337 0 min 0,000 mm 0 W/m 13,0 C 15,1 C 0,0 km/h (0 Bft) 100 %
05.09.2016 23:10 15,1 C 15,1 C 15,1 C 88 % 1022,7 hPa 0,0 l/m 0,0 km/h (0 Bft) N-NW 337 0 min 0,000 mm 0 W/m 13,1 C 15,1 C 0,0 km/h (0 Bft) 100 %
05.09.2016 23:20 15,1 C 15,1 C 15,1 C 87 % 1022,9 hPa 0,0 l/m 0,0 km/h (0 Bft) N-NW 337 0 min 0,000 mm 0 W/m 13,0 C 15,1 C 0,0 km/h (0 Bft) 100 %
05.09.2016 23:30 14,9 C 14,9 C 15,1 C 87 % 1022,9 hPa 0,0 l/m 0,0 km/h (0 Bft) N-NW 337 0 min 0,000 mm 0 W/m 12,8 C 14,9 C 0,0 km/h (0 Bft) 100 %
05.09.2016 23:40 15,0 C 14,9 C 15,0 C 88 % 1022,9 hPa 0,0 l/m 0,0 km/h (0 Bft) N-NW 337 0 min 0,000 mm 0 W/m 13,0 C 15,0 C 0,0 km/h (0 Bft) 100 %
05.09.2016 23:50 15,1 C 15,0 C 15,1 C 88 % 1022,9 hPa 0,0 l/m 0,0 km/h (0 Bft) N-NW 337 0 min 0,000 mm 0 W/m 13,1 C 15,1 C 0,0 km/h (0 Bft) 100 %
_ Min-Zeit 05:40 05:40 05:50 16:00 00:00 - 07:00 - - - - - 05:40 05:40 19:50 07:00
Minimum _ 13,4 C 13,4 C 13,4 C 64 % 1014,6 hPa - 0,0 km/h (0 Bft) - - - - - 11,6 C 13,4 C 0,0 km/h (0 Bft) 88 %
_ Max-Zeit 16:00 16:00 16:00 00:00 23:20 00:10 17:40 - - 09:10 00:10 13:10 15:00 15:50 12:20 22:10
Maximum _ 21,0 C 20,9 C 21,0 C 89 % 1022,9 hPa 4,2 l/m 11,8 km/h
W-NW (2 Bft)
- - 10 min 0,940 mm 849 W/m 15,0 C 20,9 C 24,1 km/h
W-SW (4 Bft)
100 %
Durchschnitt _ 16,6 C 16,5 C 16,7 C 81 % 1018,5 hPa #4,2 l/m 3,7 km/h (1 Bft) W - #5:00 h #2,362 mm 157 W/m 13,1 C 16,4 C 11,0 km/h (2 Bft) 98 %
PRIVATE WETTERSTATION BILLIGHEIM-ALLFELD - www.neckar-odenwald-wetter.de - Holger Sonntag